This is the latest recevied weather packets stored in our database for station/object SV9TNF-1. If no packets are shown the sender has not sent any weather packets the latest 10 day(s).
| Time | Temp. | Humidity | Pressure | Rain* | Wind** | Luminosity | Snow |
|---|---|---|---|---|---|---|---|
| 1778000106 | 19.44° C | 51% | 1005.1 hPa | 0 mm | 8.94 m/s, 270° | - | - |
| 1777999807 | 19.44° C | 50% | 1005.1 hPa | 0 mm | 11.62 m/s, 268° | - | - |
| 1777999507 | 20° C | 50% | 1005.1 hPa | 0 mm | 8.05 m/s, 307° | - | - |
| 1777999206 | 20° C | 48% | 1005.1 hPa | 0 mm | 9.83 m/s, 254° | - | - |
| 1777998907 | 20° C | 47% | 1005.1 hPa | 0 mm | 12.07 m/s, 265° | - | - |
| 1777998606 | 20° C | 48% | 1005.1 hPa | 0 mm | 6.26 m/s, 126° | - | - |
| 1777998306 | 20.56° C | 47% | 1005.1 hPa | 0 mm | 9.83 m/s, 178° | - | - |
| 1777998006 | 20.56° C | 46% | 1005.1 hPa | 0 mm | 10.28 m/s, 240° | - | - |
| 1777997706 | 20.56° C | 45% | 1005.1 hPa | 0 mm | 15.2 m/s, 290° | - | - |
| 1777997405 | 21.11° C | 43% | 1005.1 hPa | 0 mm | 12.07 m/s, 202° | - | - |
| 1777997105 | 21.11° C | 41% | 1005.1 hPa | 0 mm | 8.94 m/s, 326° | - | - |
| 1777996805 | 21.67° C | 41% | 1005.1 hPa | 0 mm | 7.15 m/s, 315° | - | - |
| 1777996505 | 21.67° C | 42% | 1005.1 hPa | 0 mm | 6.71 m/s, 291° | - | - |
| 1777996205 | 22.22° C | 43% | 1005.1 hPa | 0 mm | 8.49 m/s, 240° | - | - |
| 1777995905 | 22.78° C | 39% | 1005.1 hPa | 0 mm | 8.94 m/s, 316° | - | - |
| 1777995605 | 23.33° C | 39% | 1005.1 hPa | 0 mm | 8.49 m/s, 254° | - | - |
| 1777995305 | 23.33° C | 39% | 1005.1 hPa | 0 mm | 5.81 m/s, 274° | - | - |
| 1777995006 | 23.33° C | 37% | 1005.1 hPa | 0 mm | 6.26 m/s, 191° | - | - |
| 1777994705 | 22.78° C | 40% | 1005.1 hPa | 0 mm | 13.86 m/s, 301° | - | - |
| 1777994405 | 23.33° C | 37% | 1005.1 hPa | 0 mm | 8.94 m/s, 335° | - | - |
| 1777994105 | 23.89° C | 38% | 1005.1 hPa | 0 mm | 8.94 m/s, 176° | - | - |
| 1777993804 | 23.33° C | 36% | 1005.1 hPa | 0 mm | 10.73 m/s, 264° | - | - |
| 1777993505 | 23.89° C | 36% | 1005.1 hPa | 0 mm | 6.71 m/s, 315° | - | - |
| 1777993205 | 23.89° C | 33% | 1005.1 hPa | 0 mm | 6.71 m/s, 217° | - | - |
| 1777992904 | 23.89° C | 34% | 1005.1 hPa | 0 mm | 8.05 m/s, 266° | - | - |
* Rain latest hour (hover to see other rain measurements)
** Current wind speed in m/s (hover to see current wind gust speed)